Miscellaneous Local Product
Issued by NWS Hastings, NE

Home | Current Version | Previous Version | Graphics & Text | Print | Product List | Glossary On
Versions: 1 2 3 4 5 6 7 8 9 10 11 12 13 14 15 16 17 18 19 20 21 22 23 24 25 26 27 28 29 30 31 32 33 34 35 36 37 38 39 40 41 42 43 44 45 46 47 48 49 50
089
AXUS43 KGID 130802
MISGRI

GID CWA HOURLY WEATHER ROUNDUP
NATIONAL WEATHER SERVICE HASTINGS NE
200 AM CST WED DEC 13 2017

NOTE: "FAIR" INDICATES FEW OR NO CLOUDS BELOW 12,000 FEET WITH NO
SIGNIFICANT WEATHER AND/OR OBSTRUCTIONS TO VISIBILITY.

...SOUTH CENTRAL NEBRASKA...

CITY           SKY/WX    TMP DP  RH WIND       PRES   REMARKS
GRAND ISLAND   CLEAR     39  22  50 W14       29.75F WCI  31
KEARNEY        CLEAR     43  19  38 NW14      29.79S
HASTINGS       CLEAR     41  20  43 W16       29.76F
ORD            CLOUDY    46  19  34 NW14      29.75S
YORK           CLEAR     32  21  64 CALM      29.73F
AURORA         CLEAR     38  21  50 W14       29.73S WCI  30
LEXINGTON      CLOUDY    37  21  53 NW21      29.83S WCI  26
HOLDREGE       PTCLDY    42  21  44 W9        29.81S
HEBRON         CLEAR     40  21  46 W6        29.75F

...NEBRASKA PANHANDLE...

CITY           SKY/WX    TMP DP  RH WIND       PRES   REMARKS
CHADRON        CLOUDY    48  12  23 W21       29.96R
ALLIANCE       CLOUDY    41  15  35 W13       29.95S
SCOTTSBLUFF    CLOUDY    35  15  44 NW10      30.02S WCI  27
SIDNEY         CLOUDY    43  11  27 NW13      30.00R

...WESTERN AND NORTH CENTRAL NEBRASKA...

CITY           SKY/WX    TMP DP  RH WIND       PRES   REMARKS
VALENTINE      PTCLDY    54  17  23 NW18G33   29.80R
AINSWORTH      CLOUDY    49  20  31 NW21G30   29.77S
ONEILL         PTCLDY    51  21  31 W24G31    29.69F
BROKEN BOW     CLOUDY    46  19  34 NW18      29.80R
IMPERIAL       CLOUDY    40  13  33 W14       29.92F WCI  32
NORTH PLATTE   CLOUDY    26  19  74 NW9       29.86F WCI  17
MCCOOK         CLOUDY    41  17  38 W21G29    29.87F

...EASTERN NEBRASKA...

CITY           SKY/WX    TMP DP  RH WIND       PRES   REMARKS
NORFOLK        CLOUDY    40  22  48 W12       29.65F WCI  33
SO SIOUX CITY  CLOUDY    23  19  85 E5        29.59F WCI  17
TEKAMAH        PTCLDY    38  22  52 S9        29.63F WCI  31
ALBION         CLOUDY    48  21  34 NW12      29.70F
OMAHA EPPLEY   PTCLDY    29  23  78 SE12      29.67F WCI  19
OFFUTT AFB     CLEAR     24  20  85 CALM      29.67F
MILLARD        CLEAR     38  26  60 CALM      29.68F
LINCOLN        CLEAR     35  23  61 S3        29.72F
NEBRASKA CITY  CLEAR     38  26  60 SW16      29.69F WCI  29
BEATRICE       CLEAR     38  24  55 SW10      29.73F WCI  32
FALLS CITY     CLEAR     39  24  55 SW8       29.74F WCI  33

...NORTHERN KANSAS...

CITY           SKY/WX    TMP DP  RH WIND       PRES   REMARKS
GOODLAND       CLOUDY    39  16  39 W14       29.95F WCI  31
HILL CITY      CLEAR     42  20  41 W8        29.86F
NORTON         SUNNY     45  10  24 W17       29.84S
PHILLIPSBURG   CLEAR     43  18  36 NW9       29.82F
SMITH CENTER   CLEAR     28  18  64 SW6       29.82F WCI  22
HAYS           CLEAR     45  17  32 W15       29.86F
RUSSELL        CLEAR     40  20  44 W12       29.83F WCI  33
CONCORDIA      CLOUDY    41  20  43 SW13      29.77F
SALINA         CLEAR     33  21  61 S6        29.83F WCI  28
TOPEKA         CLEAR     40  29  64 SW9       29.82F WCI  34



USA.gov is the U.S. government's official web portal to all federal, state and local government web resources and services.